Regional Weather Roundup
Issued by NWS

Home | Current Version | Previous Version | Text Only | Print | Product List | Glossary Off
Versions: 1 2 3 4 5 6 7 8 9 10 11 12 13 14 15 16 17 18 19 20 21 22 23 24 25 26 27 28 29 30 31 32 33 34 35 36 37 38 39 40 41 42 43 44 45 46 47 48 49 50

000
ASUS43 KMPX 041010
RWRMN
WEATHER ROUNDUP FOR MINNESOTA
NATIONAL WEATHER SERVICE TWIN CITIES/CHANHASSEN MN
400 AM CST WED MAR 04 2015


NOTE: "FAIR" INDICATES FEW OR NO CLOUDS BELOW 12,000 FEET WITH NO
SIGNIFICANT WEATHER AND/OR OBSTRUCTIONS TO VISIBILITY. N/A MEANS
CURRENT SKY AND/OR WEATHER CONDITIONS ARE NOT AVAILABLE.

MNZ060>063-068>070-041100-
   Twin Cities Metro

CITY           SKY/WX    TMP DP  RH WIND       PRES   REMARKS
TWIN CITIES    CLEAR      1  -7  68 W12       30.10S WCI -16
ST PAUL        FAIR       3  -6  66 W9        30.12R WCI -12
CRYSTAL        CLEAR      0  -8  69 W9        30.09S WCI -15
BLAINE         CLEAR      1  -6  71 W7        30.08R WCI -11
LAKEVILLE      CLEAR     -2  -8  78 W8        30.10R WCI -17
EDEN PRAIRIE   CLEAR     -1  -9  68 W7        30.10R WCI -14
SOUTH ST PAUL  CLEAR      3  -6  65 W8        30.10S WCI -10
LAKE ELMO      FAIR       1  -6  71 W7        30.09R WCI -11
$$
MNZ001>005-007-008-013>017-022>024-027-028-041100-
   Northwest Minnesota

CITY           SKY/WX    TMP DP  RH WIND       PRES   REMARKS
BEMIDJI        CLEAR     -9 -13  80 W8        29.95S WCI -25
HALLOCK        CLEAR     -8 -15  71 NW12      30.06R WCI -27
ROSEAU         CLEAR     -9 -17  70 W8        30.00R WCI -26
WARROAD        CLEAR    -15 -18  84 W6        29.97R WCI -29
THIEF RVR FALL PTCLDY    -8 -11  84 W8        30.01R WCI -23
CROOKSTON      CLEAR     -6 -11  77 NW10      30.07R WCI -23
FOSSTON        CLEAR    -11 -17  77 W8        30.01R WCI -28
DETROIT LAKES  CLEAR     -4  -8  84 W7        30.02S WCI -18
MOORHEAD       CLEAR      0  -8  71 W9        30.10R WCI -16
PARK RAPIDS    CLEAR    -10 -15  78 W8        29.97S WCI -26
MAHNOMEN       FAIR      -6 -12  73 W10       30.02R WCI -23
$$
MNZ006-009>011-018-025>026-041100-
   North Central Minnesota

CITY           SKY/WX    TMP DP  RH WIND       PRES   REMARKS
BAUDETTE       CLEAR    -13 -18  78 W6        29.94R WCI -27
FLAG ISLAND    CLEAR    -15 -18  84 W8        29.95R WCI -32
INTL FALLS     CLEAR    -11 -17  75 W7        29.92R WCI -26
WASKISH        CLEAR     -9 -15  77 W6        29.95R WCI -23
BIG FORK       CLEAR     -9 -17  70 W3        29.93R
LONGVILLE      CLEAR     -9 -15  77 SW3       29.97S
GRAND RAPIDS   CLOUDY    -6 -11  77 W8        29.92S WCI -21
CRANE LAKE     FAIR      -8 -15  71 CALM      29.93R
ORR            CLEAR     -9 -17  70 W3        29.88R
COOK           LGT SNOW  -9 -13  84 W5        29.91R WCI -21
WALKER         FAIR      -7 -12  78 W6        29.97S WCI -20
$$
MNZ012-019>021-037-041100-
   Northeast Minnesota

CITY           SKY/WX    TMP DP  RH WIND       PRES   REMARKS
DULUTH         CLEAR     -5 -12  72 W14       29.90R WCI -25
ELY            PTCLDY    -8 -13  77 W6        29.87R HAZE    WCI -21
HIBBING        FAIR      -7 -14  71 W6        29.93R WCI -20
EVELETH        CLEAR     -6 -13  71 W5        29.93R WCI -17
DULUTH HARBOR  CLEAR      0  -9  65 W8        30.02R WCI -15
TWO HARBORS    CLEAR     -2 -11  65 W9        29.91R WCI -18
SILVER BAY     CLEAR     -2  -9  71 W3        29.88R
GRAND MARAIS     N/A     -1 -12  59 VRB5      29.90R WCI -11
G MARAIS ARPRT PTCLDY    -9 -18  64 W12G17    29.73R WCI -29
$$
MNZ029>031-032-039>041-046>048-054>057-064-041100-
   West Central Minnesota

CITY           SKY/WX    TMP DP  RH WIND       PRES   REMARKS
FERGUS FALLS   FAIR      -8 -15  71 W6        30.12S WCI -21
WHEATON        CLEAR     -8 -15  71 SW7       30.13S WCI -22
MORRIS         CLEAR     -4 -11  71 NW10      30.08F WCI -21
ALEXANDRIA     CLEAR     -5 -10  79 W12       30.04S WCI -23
ELBOW LAKE     FAIR      -6 -11  78 W8        30.07S WCI -21
WADENA         CLEAR     -9 -13  84 W8        30.01R WCI -26
GLENWOOD       FAIR      -8 -11  84 W10       30.06R WCI -26
APPLETON       CLEAR     -2 -11  65 W8        30.12F WCI -17
BENSON         CLEAR     -4 -11  71 NW8       30.10S WCI -19
ORTONVILLE     CLEAR     -6 -13  71 W7        30.11S WCI -20
MADISON        CLEAR     -2  -9  71 W8        30.14S WCI -17
WILLMAR        FAIR       0  -9  65 W8        30.10S WCI -15
$$
MNZ033>034-036-042>043-049>051-058-059-041100-
   Central Minnesota

CITY           SKY/WX    TMP DP  RH WIND       PRES   REMARKS
ST CLOUD       CLEAR     -2 -10  69 W9        30.06S WCI -18
SAUK CENTRE    FAIR      -8 -13  80 W7        30.06S WCI -23
PAYNESVILLE    CLEAR     -9 -13  83 SW7       30.07F WCI -24
AITKIN         CLEAR     -2 -11  65 W5        29.98S WCI -12
PINE RIVER     CLEAR     -8 -11  84 CALM      30.02S
BRAINERD       CLEAR     -6 -11  79 W7        30.01S WCI -20
STAPLES        CLEAR     -9 -15  77 W6        30.01S WCI -23
LITTLE FALLS   CLEAR     -4 -11  71 CALM      30.06R
LITCHFIELD     CLEAR     -2  -8  78 CALM      30.10R
BUFFALO        CLEAR     -3 -10  73 SW3       30.11R
MAPLE LAKE     CLEAR      0  -7  74 W6        30.10R WCI -12
$$
MNZ037-044-045-052-053-041100-
   East Central Minnesota

CITY           SKY/WX    TMP DP  RH WIND       PRES   REMARKS
PRINCETON      CLEAR     -2  -9  71 W6        30.06R WCI -14
MORA           CLEAR     -4  -9  77 W6        30.05R WCI -16
RUSH CITY      MOCLDY    -4 -10  75 W5        30.06R WCI -15
MOOSE LAKE     CLEAR     -4 -13  65 CALM      29.98R
HINCKLEY       FAIR      -6  -9  84 W5        30.02R WCI -17
CLOQUET        CLEAR     -6 -11  77 W14       29.94S WCI -26
MCGREGOR       CLEAR     -4  -9  77 W5        29.99S WCI -15
$$
MNZ071>073-080-081-089-090-097-098-041100-
   Southwest Minnesota

CITY           SKY/WX    TMP DP  RH WIND       PRES   REMARKS
MONTEVIDEO     CLEAR      0  -8  71 NW3       30.13S
GRANITE FALLS  CLEAR     -4 -10  75 CALM      30.15S
CANBY          CLEAR      1  -8  67 W9        30.14S WCI -15
MARSHALL       CLEAR     -2 -11  65 W9        30.13S WCI -18
REDWOOD FALLS  CLEAR     -2  -9  72 W8        30.13R WCI -17
OLIVIA         CLEAR      0  -6  78 W9        30.12S WCI -16
PIPESTONE      CLEAR     -2  -8  78 W7        30.09F WCI -16
WINDOM         CLEAR     -2  -8  78 W6        30.11S WCI -14
WORTHINGTON    CLEAR     -2  -8  78 W8        30.12F WCI -17
JACKSON        PTCLDY     3  -6  66 NW13      30.11S WCI -14
TRACY          CLEAR      1  -8  68 W7        30.12S WCI -12
SLAYTON        CLEAR     -2 -10  69 CALM      30.11S
$$
MNZ065>067-074>077-082>085-091>093-041100-
   South Central Minnesota

CITY           SKY/WX    TMP DP  RH WIND       PRES   REMARKS
MANKATO        FAIR       1  -6  71 W12       30.12R WCI -15
NEW ULM        CLEAR     -4 -11  71 W7        30.13S WCI -18
ST JAMES       CLEAR      3  -6  66 W10       30.14S WCI -12
FAIRMONT       PTCLDY     3  -6  66 NW13      30.10S WCI -14
GLENCOE        CLEAR     -2  -7  78 W5        30.11S WCI -12
FARIBAULT      CLEAR      1  -6  71 W9        30.10R WCI -14
OWATONNA       PTCLDY     1  -6  71 W15       30.08S WCI -18
WASECA         PTCLDY     1  -6  71 W14       30.11S WCI -17
ALBERT LEA     PTCLDY     3  -6  66 NW12G20   30.08R WCI -13
$$
MNZ078>079-086>088-094>096-041100-
   Southeast Minnesota

CITY           SKY/WX    TMP DP  RH WIND       PRES   REMARKS
ROCHESTER      PTCLDY     2  -6  69 NW22      30.03R WCI -20
RED WING       CLEAR      3  -8  60 W8        30.09R WCI -10
STANTON        CLEAR      2  -6  67 W9        30.09R WCI -12
DODGE CENTER   PTCLDY     1  -2  85 NW14G20   30.04R WCI -17
WINONA         CLEAR     10   1  67 NW10      30.09R WCI  -3
AUSTIN         PTCLDY     3  -2  78 NW12      30.07R WCI -13
PRESTON        CLEAR      3  -5  69 NW17G24   30.04R WCI -17
$$
ABBREVIATIONS USED IN REMARKS
   TC - TEMPERATURES IN CELSIUS
  WCI - WIND CHILL INDEX
   HX - HEAT INDEX
  VSB - VISIBILITY
$$



USA.gov is the U.S. government's official web portal to all federal, state and local government web resources and services.